| time (UTC) | temp C | wind direction | speed KPH | gust KPH | rain 1hr cm | rain 24hr cm | rain mn cm | humidity % | barometer mb |
| 20260905224509 | 30 | 127 | 0.0 | 3.2 | 0.00 | 0.00 | 0.00 | 80 | 1009.8 |
| 20260905223028 | 30 | 113 | 0.0 | 4.8 | 0.00 | 0.00 | 0.00 | 79 | 1009.8 |
| 20260905221527 | 31 | 119 | 0.0 | 8.0 | 0.00 | 0.00 | 0.00 | 78 | 1009.7 |
| 20260905220008 | 31 | 79 | 0.0 | 4.8 | 0.00 | 0.00 | 0.00 | 76 | 1009.6 |
| 20260905214506 | 31 | 96 | 1.6 | 11.3 | 0.00 | 0.00 | 0.00 | 73 | 1009.6 |
| 20260905213005 | 32 | 142 | 0.0 | 0.0 | 0.00 | 0.00 | 0.00 | 68 | 1009.8 |
| 20260905211512 | 32 | 142 | 0.0 | 0.0 | 0.00 | 0.00 | 0.00 | 67 | 1009.8 |
| 20260905210005 | 32 | 142 | 0.0 | 0.0 | 0.00 | 0.00 | 0.00 | 68 | 1009.9 |
| 20260905204501 | 32 | 245 | 0.0 | 3.2 | 0.00 | 0.00 | 0.00 | 68 | 1010.1 |
| 20260905203058 | 32 | 171 | 0.0 | 1.6 | 0.00 | 0.00 | 0.00 | 71 | 1010.3 |
| 20260905201603 | 31 | 217 | 0.0 | 3.2 | 0.00 | 0.00 | 0.00 | 74 | 1010.4 |
| 20260905200113 | 31 | 182 | 0.0 | 3.2 | 0.00 | 0.00 | 0.00 | 75 | 1010.5 |
| 20260905194552 | 31 | 192 | 0.0 | 1.6 | 0.00 | 0.94 | 0.00 | 76 | 1010.4 |
| 20260905193051 | 30 | 182 | 0.0 | 1.6 | 0.00 | 0.94 | 0.00 | 76 | 1010.6 |
| 20260905191552 | 30 | 182 | 0.0 | 3.2 | 0.00 | 0.94 | 0.00 | 77 | 1011.0 |
| 20260905190051 | 31 | 67 | 0.0 | 3.2 | 0.00 | 0.94 | 0.00 | 77 | 1011.3 |
| 20260905184552 | 31 | 147 | 0.0 | 3.2 | 0.00 | 0.99 | 0.00 | 76 | 1011.3 |
| 20260905183050 | 30 | 85 | 0.0 | 3.2 | 0.00 | 0.99 | 0.00 | 77 | 1011.5 |
| 20260905181548 | 30 | 86 | 0.0 | 4.8 | 0.00 | 0.99 | 0.00 | 79 | 1011.7 |
| 20260905180046 | 28 | 225 | 0.0 | 4.8 | 0.00 | 0.99 | 0.00 | 80 | 1012.0 |
| 20260905174544 | 28 | 154 | 0.0 | 6.4 | 0.00 | 0.99 | 0.00 | 80 | 1012.2 |
| 20260905173044 | 28 | 102 | 0.0 | 11.3 | 0.00 | 0.99 | 0.00 | 77 | 1012.7 |
| 20260905171557 | 28 | 334 | 3.2 | 14.5 | 0.00 | 0.99 | 0.00 | 76 | 1012.9 |
| 20260905170042 | 30 | 211 | 0.0 | 8.0 | 0.00 | 0.99 | 0.00 | 80 | 1013.0 |
| 20260905164541 | 30 | 171 | 1.6 | 9.7 | 0.00 | 0.99 | 0.00 | 77 | 1012.8 |
| 20260905163038 | 30 | 246 | 1.6 | 9.7 | 0.00 | 0.99 | 0.00 | 76 | 1012.6 |
| 20260905161540 | 30 | 56 | 8.0 | 16.1 | 0.00 | 0.99 | 0.00 | 78 | 1012.5 |
| 20260905160044 | 30 | 83 | 4.8 | 17.7 | 0.00 | 0.99 | 0.00 | 79 | 1012.5 |
| 20260905154548 | 31 | 292 | 1.6 | 6.4 | 0.00 | 0.99 | 0.00 | 76 | 1012.4 |
| 20260905153031 | 31 | 248 | 1.6 | 6.4 | 0.00 | 0.99 | 0.00 | 78 | 1012.3 |
| 20260905151531 | 31 | 40 | 1.6 | 6.4 | 0.00 | 0.99 | 0.00 | 79 | 1012.3 |
| 20260905150028 | 31 | 60 | 1.6 | 6.4 | 0.00 | 0.99 | 0.00 | 79 | 1012.3 |
| 20260905144537 | 30 | 15 | 0.0 | 4.8 | 0.00 | 0.99 | 0.00 | 81 | 1012.4 |
| 20260905143024 | 30 | 319 | 0.0 | 4.8 | 0.00 | 0.99 | 0.00 | 80 | 1012.3 |
| 20260905141524 | 30 | 325 | 0.0 | 3.2 | 0.00 | 0.99 | 0.00 | 83 | 1012.3 |
| 20260905140016 | 29 | 21 | 0.0 | 3.2 | 0.00 | 0.99 | 0.00 | 86 | 1012.2 |
| 20260905134512 | 28 | 319 | 0.0 | 3.2 | 0.00 | 0.99 | 0.00 | 89 | 1012.0 |
| 20260905133009 | 27 | 2 | 0.0 | 3.2 | 0.00 | 0.99 | 0.00 | 91 | 1012.2 |
| 20260905131505 | 27 | 20 | 1.6 | 4.8 | 0.00 | 0.99 | 0.00 | 93 | 1012.0 |
| 20260905130003 | 26 | 315 | 0.0 | 0.0 | 0.00 | 0.99 | 0.00 | 94 | 1011.9 |
| 20260905124503 | 26 | 315 | 0.0 | 0.0 | 0.00 | 0.99 | 0.00 | 94 | 1011.7 |
| 20260905123105 | 26 | 315 | 0.0 | 0.0 | 0.00 | 0.99 | 0.00 | 94 | 1011.5 |
| 20260905121556 | 25 | 315 | 0.0 | 0.0 | 0.00 | 0.99 | 0.00 | 94 | 1011.5 |
| 20260905120055 | 25 | 315 | 0.0 | 0.0 | 0.00 | 0.99 | 0.00 | 94 | 1011.2 |
| 20260905114608 | 26 | 315 | 0.0 | 0.0 | 0.00 | 0.99 | 0.00 | 94 | 1011.1 |
| 20260905113053 | 26 | 289 | 0.0 | 0.0 | 0.00 | 0.99 | 0.00 | 94 | 1011.0 |
| 20260905111605 | 26 | 289 | 0.0 | 0.0 | 0.00 | 0.99 | 0.00 | 94 | 1010.8 |
| 20260905110049 | 25 | 267 | 0.0 | 0.0 | 0.00 | 0.99 | 0.00 | 94 | 1010.6 |
| 20260905104551 | 25 | 267 | 0.0 | 0.0 | 0.00 | 0.99 | 0.00 | 93 | 1010.7 |
| 20260905103050 | 26 | 267 | 0.0 | 0.0 | 0.00 | 0.99 | 0.00 | 93 | 1010.6 |
| 20260905101546 | 26 | 267 | 0.0 | 0.0 | 0.00 | 0.99 | 0.00 | 93 | 1010.6 |
| 20260905100049 | 26 | 267 | 0.0 | 0.0 | 0.00 | 0.99 | 0.00 | 93 | 1010.7 |
| 20260905094600 | 26 | 267 | 0.0 | 0.0 | 0.00 | 0.99 | 0.00 | 93 | 1010.7 |
| 20260905093046 | 26 | 267 | 0.0 | 0.0 | 0.00 | 0.99 | 0.00 | 93 | 1010.6 |
| 20260905091547 | 26 | 267 | 0.0 | 0.0 | 0.00 | 0.99 | 0.00 | 93 | 1010.5 |
| 20260905090043 | 26 | 267 | 0.0 | 0.0 | 0.00 | 0.99 | 0.00 | 92 | 1010.6 |
| 20260905084545 | 26 | 267 | 0.0 | 0.0 | 0.00 | 0.99 | 0.00 | 92 | 1010.4 |
| 20260905083041 | 26 | 267 | 0.0 | 0.0 | 0.00 | 0.99 | 0.00 | 92 | 1010.3 |
| 20260905081543 | 26 | 267 | 0.0 | 0.0 | 0.00 | 0.99 | 0.00 | 92 | 1010.3 |
| 20260905080051 | 26 | 267 | 0.0 | 0.0 | 0.00 | 0.99 | 0.00 | 92 | 1010.4 |
| 20260905074538 | 26 | 267 | 0.0 | 0.0 | 0.00 | 0.99 | 0.00 | 92 | 1010.4 |
| 20260905073044 | 26 | 267 | 0.0 | 0.0 | 0.00 | 0.99 | 0.00 | 91 | 1010.5 |
| 20260905071535 | 26 | 267 | 0.0 | 0.0 | 0.00 | 0.99 | 0.00 | 91 | 1010.7 |
| 20260905070043 | 26 | 267 | 0.0 | 3.2 | 0.00 | 0.99 | 0.00 | 91 | 1010.9 |
| 20260905064531 | 26 | 267 | 0.0 | 3.2 | 0.00 | 0.99 | 0.00 | 91 | 1011.1 |
| 20260905063029 | 26 | 151 | 0.0 | 0.0 | 0.00 | 0.99 | 0.00 | 91 | 1011.1 |
| 20260905061547 | 27 | 152 | 0.0 | 0.0 | 0.00 | 0.99 | 0.00 | 91 | 1011.2 |
| 20260905060028 | 27 | 151 | 0.0 | 0.0 | 0.00 | 0.99 | 0.00 | 90 | 1011.2 |
| 20260905054529 | 27 | 151 | 0.0 | 0.0 | 0.00 | 0.99 | 0.00 | 90 | 1011.3 |
| 20260905053027 | 27 | 151 | 0.0 | 0.0 | 0.00 | 0.99 | 0.00 | 89 | 1011.2 |
| 20260905051532 | 27 | 151 | 0.0 | 0.0 | 0.00 | 0.99 | 0.00 | 89 | 1011.3 |
| 20260905050023 | 27 | 151 | 0.0 | 0.0 | 0.00 | 0.99 | 0.00 | 89 | 1011.2 |
| 20260905044524 | 27 | 151 | 0.0 | 0.0 | 0.00 | 0.99 | 0.99 | 89 | 1011.4 |
| 20260905043135 | 27 | 151 | 0.0 | 0.0 | 0.00 | 0.99 | 0.99 | 89 | 1011.3 |
| 20260905041520 | 27 | 151 | 0.0 | 0.0 | 0.00 | 0.99 | 0.99 | 89 | 1011.5 |
| 20260905040021 | 27 | 151 | 0.0 | 0.0 | 0.00 | 0.99 | 0.99 | 88 | 1011.6 |
| 20260905034526 | 28 | 151 | 0.0 | 0.0 | 0.00 | 0.99 | 0.99 | 88 | 1011.7 |
| 20260905033018 | 28 | 151 | 0.0 | 0.0 | 0.00 | 0.99 | 0.99 | 88 | 1011.5 |
| 20260905031518 | 28 | 151 | 0.0 | 0.0 | 0.00 | 0.99 | 0.99 | 88 | 1011.8 |
| 20260905030018 | 28 | 151 | 0.0 | 0.0 | 0.00 | 0.99 | 0.99 | 87 | 1011.8 |
| 20260905024517 | 28 | 151 | 0.0 | 0.0 | 0.00 | 0.99 | 0.99 | 86 | 1011.6 |
| 20260905023017 | 28 | 151 | 0.0 | 0.0 | 0.00 | 0.99 | 0.99 | 85 | 1011.5 |
| 20260905021515 | 28 | 151 | 0.0 | 0.0 | 0.00 | 0.99 | 0.99 | 84 | 1011.4 |
| 20260905020016 | 28 | 151 | 0.0 | 0.0 | 0.00 | 0.99 | 0.99 | 84 | 1011.1 |
| 20260905014519 | 29 | 151 | 0.0 | 0.0 | 0.00 | 0.99 | 0.99 | 83 | 1011.0 |
| 20260905013014 | 29 | 151 | 0.0 | 0.0 | 0.00 | 0.99 | 0.99 | 82 | 1010.9 |
| 20260905011514 | 29 | 151 | 0.0 | 0.0 | 0.00 | 0.99 | 0.99 | 81 | 1010.8 |
| 20260905010018 | 30 | 151 | 0.0 | 0.0 | 0.00 | 0.99 | 0.99 | 80 | 1010.6 |
| 20260905004514 | 30 | 151 | 0.0 | 1.6 | 0.00 | 0.99 | 0.99 | 80 | 1010.5 |
| 20260905003019 | 30 | 142 | 0.0 | 3.2 | 0.00 | 0.99 | 0.99 | 80 | 1010.4 |
| 20260905001513 | 30 | 160 | 0.0 | 1.6 | 0.00 | 0.99 | 0.99 | 79 | 1010.5 |
| 20260905000028 | 31 | 210 | 0.0 | 3.2 | 0.00 | 0.99 | 0.99 | 79 | 1010.4 |
| 20260904234511 | 31 | 163 | 0.0 | 0.0 | 0.00 | 0.99 | 0.99 | 79 | 1010.4 |
| 20260904233011 | 31 | 131 | 0.0 | 4.8 | 0.00 | 0.99 | 0.99 | 78 | 1010.3 |
| 20260904231512 | 31 | 130 | 0.0 | 3.2 | 0.00 | 0.99 | 0.99 | 78 | 1010.4 |
| 20260904230013 | 31 | 127 | 0.0 | 3.2 | 0.00 | 0.99 | 0.99 | 77 | 1010.3 |